This is the latest recevied weather packets stored in our database for station/object DL1DH-17. If no packets are shown the sender has not sent any weather packets the latest 10 day(s).
| Time | Temp. | Humidity | Pressure | Rain* | Wind** | Luminosity | Snow |
|---|---|---|---|---|---|---|---|
| 1778014742 | 12.78° C | 84% | 968.6 hPa | - | - | - | - |
| 1778013902 | 12.78° C | 85% | 968.5 hPa | - | - | - | - |
| 1778013062 | 12.78° C | 84% | 968.6 hPa | - | - | - | - |
| 1778012222 | 12.22° C | 84% | 968.6 hPa | - | - | - | - |
| 1778011382 | 12.22° C | 84% | 968.5 hPa | - | - | - | - |
| 1778010541 | 12.78° C | 83% | 968.5 hPa | - | - | - | - |
| 1778009701 | 12.78° C | 83% | 968.4 hPa | - | - | - | - |
| 1778008861 | 13.33° C | 82% | 968.3 hPa | - | - | - | - |
| 1778008021 | 13.89° C | 81% | 968.3 hPa | - | - | - | - |
| 1778007181 | 13.89° C | 81% | 968.2 hPa | - | - | - | - |
| 1778006341 | 13.89° C | 80% | 968.1 hPa | - | - | - | - |
| 1778005501 | 13.33° C | 80% | 967.9 hPa | - | - | - | - |
| 1778004661 | 13.89° C | 80% | 968 hPa | - | - | - | - |
| 1778003821 | 13.89° C | 80% | 968.1 hPa | - | - | - | - |
| 1778002980 | 13.89° C | 80% | 968 hPa | - | - | - | - |
| 1778002140 | 14.44° C | 80% | 968 hPa | - | - | - | - |
| 1778001300 | 14.44° C | 79% | 967.9 hPa | - | - | - | - |
| 1778000460 | 14.44° C | 78% | 968 hPa | - | - | - | - |
| 1777999620 | 14.44° C | 78% | 968.1 hPa | - | - | - | - |
| 1777998780 | 14.44° C | 77% | 968.2 hPa | - | - | - | - |
| 1777997940 | 14.44° C | 77% | 968.5 hPa | - | - | - | - |
| 1777997100 | 14.44° C | 76% | 968.6 hPa | - | - | - | - |
| 1777996260 | 15° C | 74% | 968.8 hPa | - | - | - | - |
| 1777995420 | 15° C | 73% | 968.9 hPa | - | - | - | - |
| 1777994579 | 15° C | 70% | 968.8 hPa | - | - | - | - |
* Rain since midnight (hover to see other rain measurements)
** Current wind speed in m/s (hover to see current wind gust speed)